Weather in Ilyinskoye

Russia / Vladimir Oblast     56°23′36″N   39°21′33″E
temp.,
°C
wind,
m/s
gust,
m/s
humid.,
%
clouds,
%
prec.,
mm/h
press.,
hPa
HPBL,
m
4 march, thu
thu400:00−2wsw61392100 0.1 1004595
03:00−1wsw71497100 0.8 1001740
06:00+1w91697100 1.6 997970
09:000wnw71398100 4.4 997847
12:00−1nw7117860 0.4 9981159
15:00−2nw688538 0.5 999861
18:00−5nw368999 0.0 1000140
21:00−8nw349372 0.0 100151
5 march, fri
fri500:00−8nw349595 0.1 100266
03:00−10wnw339691 0.1 100434
06:00−11wnw339717 0.0 100435
09:00−7wnw489456 0.1 1006375
12:00−5nw5789100 0.1 1007758
15:00−4nw5781100 0.4 10081003
18:00−9wnw358768 0.1 101080
21:00−11nnw349334 0.1 101358
6 march, sat
sat600:00−15nne129018 0.0 101520
03:00−15ssw118533 0.0 101620
06:00−15wsw128284 0.0 101620
09:00−12wnw238884 0.0 1016102
12:00−9nnw348760 0.0 1016543
15:00−8nw357980 0.0 1016851
18:00−12wnw338847 0.0 101528
21:00−14sw349024 0.0 101550
7 march, sun
sun700:00−13ssw5109227 0.0 1012201
03:00−11ssw7139243 0.0 1008342
06:00−9ssw81592100 0.1 1004623
09:00−7ssw91591100 0.4 999959
12:00−5sw91593100 0.9 9941117
15:00−3sw81395100 2.4 993985
18:00−8wnw61474100 1.0 9951038
21:00−11sw4108067 1.0 997164
8 march, mon
mon800:00−9sw6158174 0.0 995543
03:00−8sw6138887 0.0 994559
06:00−8ssw51194100 0.3 993476
09:00−9wnw5892100 1.0 994661
12:00−8nw6988100 0.1 997708
15:00−10nw81387100 0.3 1000750
18:00−10wnw61289100 0.0 1004608
21:00−12wnw5129394 0.1 1007367